Simultaneous Nadir Overpasses (SNOs) Predictions

Prediction of SNOs between GOES-16 and METOP-B Satellite Orbit:

Table of predicted SNOs for the next 14.0 days since TLE Epoch: 3/5/2022
Index Date Time (GOES-16) GOES-16 Lat,Lon METOP-B Lat,Lon Distance(km) Time Diff (sec)
1 03/05/2022 14:47:58 0.05, -75.21 0.91, -78.95 426.66 80
2 03/06/2022 14:24:38 0.04, -75.21 -0.22, -73.96 142.32 80
3 03/08/2022 02:46:18 -0.05, -75.19 -0.82, -78.55 383.42 80
4 03/09/2022 02:22:58 -0.04, -75.19 0.31, -73.56 185.71 80
5 03/10/2022 14:44:29 0.04, -75.22 0.70, -78.13 331.61 80
6 03/11/2022 14:21:10 0.04, -75.22 -0.43, -73.14 237.81 80
7 03/13/2022 02:42:49 -0.04, -75.21 -0.60, -77.73 287.15 80
8 03/14/2022 02:19:30 -0.04, -75.22 0.54, -72.74 282.58 80
9 03/15/2022 14:41:01 0.04, -75.25 0.48, -77.30 233.91 80
10 03/16/2022 14:17:41 0.04, -75.26 -0.60, -72.30 336.33 80
11 03/18/2022 02:39:20 -0.04, -75.26 -0.42, -76.90 187.37 80
